Regional Weather Roundup
Issued by NWS Green Bay, WI

Home | Current Version | Previous Version | Text Only | Print | Product List | Glossary On
Versions: 1 2 3 4 5 6 7 8 9 10 11 12 13 14 15 16 17 18 19 20 21 22 23 24 25 26 27 28 29 30 31 32 33 34 35 36 37 38 39 40 41 42 43 44 45 46 47 48 49 50
000
ASUS43 KGRB 221811
RWRGRB

NORTH-CENTRAL AND NORTHEAST WISCONSIN REGIONAL WEATHER ROUNDUP
NATIONAL WEATHER SERVICE GREEN BAY WI
1200 PM CST THU FEB 22 2018

WIZ005-009-010>012-018-019-221900-
NORTH CENTRAL WISCONSIN

CITY           SKY/WX    TMP DP  RH WIND       PRES   REMARKS
IRONWOOD       PTSUNNY   34   5  29 S6        30.55F
MANITOWISH WTR PTSUNNY   24   6  47 SE8       30.54F
ARBOR VITAE    PTSUNNY   27  11  50 SE3       30.54F
EAGLE RIVER    FAIR      27   8  46 SE3       30.54F
LAND O LAKES   PTSUNNY   28   7  40 SE7       30.56F
RHINELANDER    CLOUDY    25  10  53 E8        30.54F
PHILLIPS       CLOUDY    25  10  53 E6        30.52F
ANTIGO         FAIR      24  12  61 E8        30.56F
TOMAHAWK       FAIR      28   9  44 CALM      30.55F
MERRILL        PTSUNNY   26  14  60 SE3       30.57F
$$

WIZ013-073-221900-
NORTHEAST WISCONSIN

CITY           SKY/WX    TMP DP  RH WIND       PRES   REMARKS
IRON MOUNTAIN  FAIR      26  11  52 VRB3      30.58F
MARINETTE      FAIR      29  21  72 E6        30.66F
OCONTO         CLOUDY    28  19  70 E6        30.64S
$$

WIZ017-030-035>037-045-221900-
CENTRAL WISCONSIN

CITY           SKY/WX    TMP DP  RH WIND       PRES   REMARKS
MEDFORD        CLOUDY    23  11  59 E6        30.53F
WAUSAU         FAIR      25  11  55 SE9       30.55F
MOSINEE        CLOUDY    25  12  58 E7        30.58F
MARSHFIELD     PTSUNNY   24  13  62 E10       30.53F
WISC RAPIDS    CLOUDY    28  15  58 E9        30.57F
STEVENS POINT  PTSUNNY   24  14  66 E10       30.56F
WAUPACA        PTSUNNY   31  18  60 E6        30.60F
SHAWANO        PTSUNNY   28  17  62 NE6       30.61F
CLINTONVILLE   CLOUDY    29  18  62 E8        30.60F
WAUTOMA        CLOUDY    28  19  69 E10       30.59F
$$

WIZ038-039-048-051-221900-
FOX VALLEY

CITY           SKY/WX    TMP DP  RH WIND       PRES   REMARKS
NWS GREEN BAY  CLOUDY    27  18  69 NE7       30.62F
APPLETON       CLOUDY    27  16  63 E12       30.57F
OSHKOSH        CLOUDY    27  20  75 NE8       30.58F
FOND DU LAC    PTSUNNY   34  20  56 E10       30.58F
$$

WIZ022-050-052-221900-
EAST CENTRAL WISCONSIN

CITY           SKY/WX    TMP DP  RH WIND       PRES   REMARKS
EPHRAIM        FAIR      29  19  66 E9        30.63S
WASHINGTON ISL FAIR      29  19  66 E7        30.63F
STURGEON BAY   PTSUNNY   30  20  66 E7        30.63F
MANITOWOC      CLOUDY    31  19  61 NE8       30.60F
SHEBOYGAN      CLOUDY    32  24  72 NE13      30.58F
$$

LMZ563-521-522-541>543-221900-
LAKESHORE

STATION/POSITION TIME  TEMP    WIND        PRES    VSBY  WAVE
                       AIR SEA DIR/SP/G                  HT/PER
                 (UTC) (F)     (DEG/KT/KT) (MB)    (MI)  (FT/S)
SHEBOYGAN LKSHOR 1800   31      60/ 11/ 12 1036.6F
KEWAUNEE LKSHORE 1742   31      70/  5/  8 1036.1F
NORTHPORT PIER   1740   28                 1037.3F
SISTER BAY LKSHO 1705   33     100/  7/ 10   N/A
MENOMINEE LKSHOR 1742   23     360/ 10/ 11 1037.2F
$$



USA.gov is the U.S. government's official web portal to all federal, state and local government web resources and services.